www.pogodaiklimat.ru

Погода и климат >> Архив погоды >> Россия >> Забайкальский край >> Чара


АРХИВ ПОГОДЫ в Чаре

Время (UTC), дата Ветер
(напр.,м/с)
 
Видим.   Явления Облачность Т
(С)
Тd
(С)
f
(%)
Тe
(С)
Тes
(С)
Комфортность P
(гПа)
Po
(гПа)
Тmin
(С)
Tmax
(С)
R
(мм)
R24
(мм)
S
(см)
09 12.04 С 5
{10}
50 км 9/5 1500 м
[Cb cap Ac trans Ci fib]
-4.6 -22.7 23 -11 -10 1012.4 925.6
12 12.04 С 4
{10}
50 км 9/6 1500 м
[Cb cap Ci fib]
-6.5 -22.2 28 -12 -12 1015.0 927.4 -3.2
15 12.04 СЗ 1 50 км 8/3 1500 м
[Cb cap Ci fib]
-8.7 -21.0 36 -11 -11 1015.8 927.5
18 12.04 З 1 50 км 6/3 1500 м
[Cb cap Ci fib]
-12.5 -18.1 63 -15 -15 1017.1 927.5
21 12.04 З 1 50 км 9/3 1500 м
[Cb cap Ac lent Ci fib]
-16.1 -18.9 79 -19 -19 1018.8 927.8
00 13.04 Ю 1 50 км 6/3 1500 м
[Cu hum Ac lent Ci fib]
-9.5 -17.6 52 -12 -9 1017.5 928.8 -16.4
03 13.04 С 4 50 км 9/9 1500 м
[Cb cap]
-6.1 -22.4 26 -12 -11 1016.0 928.5
06 13.04 С 7-10
{11}
50 км 8/5 1500 м
[Cb cap Ci fib]
-4.4 -24.0 20 -11 -10 1015.3 928.4
09 13.04 С 3
{10}
50 км 4/3 1500 м
[Cb cap Ci fib]
-4.6 -25.3 18 -9 -8 1014.8 927.9
12 13.04 СВ 1 50 км 6/0
[Ci fib]
-9.6 -23.6 31 -12 -12 1015.8 927.2 -4.1
15 13.04 З 1 50 км 10/0
[Cs]
-12.4 -20.1 53 -15 -15 1013.2 923.9
18 13.04 З 1 50 км 10/0
[Cs]
-12.1 -18.9 57 -14 -14 1007.9 919.2
21 13.04 З 1 50 км 10/3 1500 м
[Cb cap Ac lent Cs]
-12.7 -17.3 68 -15 -15 1004.0 915.4
00 14.04 В 1 50 км 9/3 1000 м
[Cb cap Ci sp]
-6.4 -14.1 54 -8 -6 1000.2 913.9 -13.8
03 14.04 З 2 50 км 8/3 1500 м
[Cb cap Ci sp]
+0.1 -12.2 39 -3 +4 996.5 912.5
06 14.04 СВ 3 50 км 8/6 1500 м
[Cb cap Ci sp]
+1.4 -14.7 29 -2 +1 996.2 912.6
09 14.04 С 5
{10}
50 км 9/8 1500 м
[Cb cap Ci fib]
-0.2 -14.1 34 -5 -5 998.6 914.4
12 14.04 В 1 50 км 9/5 1500 м
[Cb cap Ac trans Ci fib]
-1.9 -16.4 32 -3 -3 1000.7 915.8 +2.8
15 14.04 СВ 2 н/о н/о -6.1 -12.3 61 -10 -10 1001.3 915.1
18 14.04 ЮЗ 1 50 км 3/0
[Ci fib]
-10.1 -12.7 81 -12 -12 1001.8 914.3
21 14.04 З 1 50 км 6/3 1500 м
[Sc Ci fib]
-13.1 -14.9 86 -15 -15 1001.9 913.4
00 15.04 СВ 1 50 км 6/3 1500 м
[Cb cap Ac trans Ci fib]
-5.3 -10.4 67 -7 -5 998.6 912.9 -13.5
03 15.04 СЗ 2 50 км 9/4 1500 м
[Cb cap Ac trans Ci fib]
+0.7 -13.9 33 -2 +2 996.1 912.4
06 15.04 С 6-11
{14}
50 км 3/3 1500 м
[Cb cap]
+0.4 -16.4 27 -5 -2 998.2 914.2
09 15.04 С 7-12
{14}
50 км 6/6 1500 м
[Cb cap]
-1.3 -18.9 25 -8 -7 1000.6 915.9
12 15.04 С 4
{12}
50 км 9/6 1500 м
[Cb cap Ci fib]
-3.4 -17.9 32 -9 -9 1003.7 918.0 +2.6
15 15.04 С 4 50 км 3/0
[Ac lent]
-5.7 -16.2 43 -12 -12 1003.9 917.6
18 15.04 ЮЗ 1 50 км 8/3 1500 м
[Cb cap Ac trans Ci fib]
-9.1 -15.6 59 -11 -11 1006.1 918.6
21 15.04 З 2 50 км 10/5 1500 м
[Cb cap Ac trans Ci fib]
-10.3 -16.6 60 -15 -15 1007.2 919.1
00 16.04 ЮЗ 1 50 км 9/3 1500 м
[Cb cap Ci sp]
-5.5 -15.6 45 -7 -5 1006.6 920.1 -10.7
03 16.04 С 3
{10}
50 км 9/8 1500 м
[Cb cap Ci sp]
-2.6 -19.8 25 -7 -5 1005.5 920.0
06 16.04 В 4 50 км 9/9 1500 м
[Cb cap]
-2.6 -17.4 31 -8 -7 1006.0 920.4
09 16.04 СВ 4 20 км осадки на расстоянии 10/10 1500 м
[Cb cap]
-3.6 -14.9 41 -9 -9 1007.8 921.8
12 16.04 С 2 50 км 8/4 1500 м
[Cb cap Ci fib]
-6.7 -11.4 69 -11 -11 1010.5 923.3 -1.2
15 16.04 штиль 0 50 км 4/3 1500 м
[Sc Ci fib]
-11.6 -14.6 78 -12 -12 1012.8 923.8
18 16.04 штиль 0 50 км 3/0
[Ci fib]
-15.2 -17.4 83 -15 -15 1014.7 924.3
21 16.04 штиль 0 50 км 1/0
[Ac lent]
-18.1 -20.4 82 -18 -18 1016.9 925.4
00 17.04 ЮВ 1 50 км 4/0
[Ci fib]
-9.3 -13.9 69 -12 -7 1014.9 926.5 -18.2
03 17.04 В 2 50 км 8/3 1500 м
[Cb cap Ci fib]
-2.7 -16.5 34 -6 +1 1012.0 925.9
06 17.04 СВ 2 50 км в посл. час ливневой снег 9/9 1500 м
[Cb cap]
-2.6 -15.9 35 -6 -5 1012.4 926.2
09 17.04 В 2 50 км {ливн. осадки} 9/8 1500 м
[Cb cap Ci fib]
-3.5 -15.3 40 -7 -6 1014.5 927.9
12 17.04 СЗ 4 50 км {ливн. осадки} 6/3 1500 м
[Cb cap Ci fib]
-5.5 -19.9 31 -11 -11 1017.7 930.2 -1.4 0.0
15 17.04 СЗ 3 50 км 3/0
[Ci fib]
-7.5 -17.6 44 -13 -13 1019.9 931.6
18 17.04 Ю 2 50 км 3/0
[Ci fib]
-12.4 -17.0 68 -17 -17 1023.5 933.3
21 17.04 ЮВ 1 50 км 1/0
[Ac lent]
-16.4 -18.9 81 -19 -19 1026.6 934.8
00 18.04 ЮЗ 2 50 км ясно -6.2 -16.4 44 -10 -6 1023.8 935.6 -16.6
03 18.04 З 4 50 км 3/3 1500 м
[Cu hum]
-1.0 -20.0 22 -5 -1 1020.6 934.2
06 18.04 ЮЗ 5
{11}
50 км 1/1 1500 м
[Cu hum]
+0.3 -23.9 14 -4 0 1017.8 932.1
09 18.04 ЮЗ 5-10
{10}
50 км 3/0
[Ci fib]
-0.0 -24.0 14 -5 -3 1015.7 930.1
12 18.04 Ю 4
{10}
50 км 1/0
[Ac lent]
-2.9 -20.4 25 -8 -8 1015.2 928.7 +0.7
15 18.04 З 1 50 км 3/0
[Ci fib]
-9.3 -14.9 64 -11 -11 1016.1 927.6
18 18.04 Ю 1 50 км 3/0
[Ci fib]
-12.8 -16.0 77 -15 -15 1015.6 926.0
21 18.04 СЗ 1 50 км 8/0
[Ci fib]
-14.7 -17.2 81 -17 -17 1013.8 923.8
00 19.04 штиль 0 50 км 10/0
[Ac lent Cs]
-4.1 -14.0 46 -4 -1 1007.5 921.4 -15.2
03 19.04 З 1 50 км 10/3 1500 м
[Cb cap Ac As]
+1.3 -16.9 24 +1 +3 1001.9 917.8
06 19.04 З 7-11
{13}
20 км слаб. ливневой снег 10/8 1000 м
[Cb cap As op]
+3.3 -10.2 36 -2 -2 996.7 913.7

 

Местоположение метеостанции Чара (Забайкальский край, Россия): широта 56.90 долгота 118.20 высота над уровнем моря 711 м.

В архиве по умолчанию представлена погода в Чаре за последнюю неделю. Архивные данные за месяц целиком и за предыдущие месяцы, начиная с января 2011 года, Вы можете получить, выбрав интересующий диапазон дат из раскрывающегося списка и нажав кнопку "Ввод!".


*Определитесь, кто Вы:
робот инопланетянин человек

Внимание! Время в таблицах - всемирное. Для получения местного времени необходимо прибавить поправку, которая равна 9 ч.

Смотрите также архив погоды в соседних городах и на ближайших метеорологических станциях:

Погода в Удокане (Забайкальский край, Россия) (18 км)
Погода в Большой Лепринде (Забайкальский край, Россия) (46 км)
Погода в Усть-Нюкже (Амурская область, Россия) (204 км)
Погода в Таксимо (Бурятия, Россия) (216 км)
Погода в Средней Олекме (Забайкальский край, Россия) (217 км)
Погода в Перевозе (Иркутская область, Россия) (246 км)
Погода в Тяне (Якутия, Россия) (252 км)
Погода в Мамакане (Иркутская область, Россия) (272 км)
Погода в Усть-Каренге (Забайкальский край, Россия) (295 км)
Погода в Тупике (Забайкальский край, Россия) (295 км)

Пояснения к столбцам:

Ветер - указаны скорость ветра в м/с - средняя за 10 мин, порывы в срок и между сроками (в фигурных скобках) и направление, откуда дует ветер: С - северный, СВ - северо-восточный, В - восточный, ЮВ - юго-восточный, Ю - южный, ЮЗ - юго-западный, З - западный, СЗ - северо-западный.
Видимость - горизонтальная дальность видимости в метрах или километрах. При видимости от 1 до 10 км при отсутствии осадков обычно наблюдается дымка, при ухудшении видимости до 1 км и менее - туман. В сухую погоду видимость может ухудшаться дымом, пылью или мглою.
Явления - указаны атмосферные явления, наблюдавшиеся в срок или в последний час перед сроком; фигурными скобками обозначены явления, наблюдавшиеся между сроками (за 1-3 часа до срока); квадратными скобками обозначены град или гололедные отложения с указанием их диаметра в мм.
Облачность - указаны через наклонную черту общая и нижняя облачность в баллах и высота нижней границы облаков в метрах; квадратными скобками обозначены формы облаков: Ci - перистые, Cs - перисто-слоистые, Cc - перисто-кучевые, Ac - высококучевые, As - высокослоистые, Sc - слоисто-кучевые, Ns - слоисто-дождевые, Cu - кучевые, Cb - кучево-дождевые. Подробнее классификацию облаков см. в Атласе облаков (PDF).
T - Температура воздуха - температура, измеренная на высоте 2 м над землей.
Td - Температура точки росы - температура, при понижении до которой содержащийся в воздухе водяной пар достигнет насыщения.
f - Относительная влажность воздуха - влажноcть воздуха, измеренная на высоте 2 м над землей.
Te - Эффективная температура - температура, которую ощущает одетый по сезону человек в тени. Характеристика душности погоды. При расчете учитывается влияние влажности воздуха и скорости ветра на теплоощущения человека.
Tes - Эффективная температура на солнце - температура, которую ощущает человек, с поправкой на солнечный нагрев. Характеристика знойности погоды. Зависит от высоты солнца над горизонтом, облачности и скорости ветра. Ночью, в пасмурную погоду, а также при ветре 12 м/с и более поправка равна нулю.
P - Атмосферное давление - приведенное к уровню моря атмосферное давление.
Po - Атмосферное давление - измеренное на уровне метеостанции атмосферное давление.
Tmin - Минимальная температура - минимум температуры воздуха на высоте 2 м над землей.
Tmax - Максимальная температура - максимум температуры воздуха на высоте 2 м над землей.
R - Количество осадков - Количество выпавших осадков за период времени, мм. При наведении курсора мыши на число - период времени, за который выпало указанное количество осадков.
R24 - Количество осадков - Количество выпавших осадков за 24 часа, мм.
S - Снежный покров - Высота снежного покрова, см. При наведении курсора мыши на число - состояние снежного покрова и степень покрытия местности в баллах.